Time,TemperatureF,DewpointF,PressureIn,WindDirection,WindDirectionDegrees,WindSpeedMPH,WindSpeedGustMPH,Humidity,HourlyPrecipIn,Conditions,Clouds,dailyrainin,SoftwareType,DateUTC
2013-06-30 00:06:00,59.7,48.0,25.80,SSE,155,0.0,1.0,65,0.00,,,0.00,weatherlink.com 1.10,2013-06-30 06:06:00,
2013-06-30 00:21:00,59.3,48.0,25.80,SSW,212,2.0,2.0,66,0.00,,,0.00,weatherlink.com 1.10,2013-06-30 06:21:00,
2013-06-30 00:36:00,56.8,48.0,25.80,WSW,242,0.0,3.0,72,0.00,,,0.00,weatherlink.com 1.10,2013-06-30 06:36:00,
2013-06-30 00:51:00,56.2,47.0,25.80,WSW,243,1.0,1.0,72,0.00,,,0.00,weatherlink.com 1.10,2013-06-30 06:51:00,
2013-06-30 01:06:00,56.1,48.0,25.80,WNW,291,0.0,1.0,74,0.00,,,0.00,weatherlink.com 1.10,2013-06-30 07:06:00,
2013-06-30 01:21:00,58.3,47.0,25.80,West,271,0.0,1.0,67,0.00,,,0.00,weatherlink.com 1.10,2013-06-30 07:21:00,
2013-06-30 01:36:00,58.8,47.0,25.80,West,271,0.0,1.0,66,0.00,,,0.00,weatherlink.com 1.10,2013-06-30 07:36:00,
2013-06-30 01:51:00,58.5,47.0,25.80,West,271,0.0,0.0,66,0.00,,,0.00,weatherlink.com 1.10,2013-06-30 07:51:00,
2013-06-30 02:07:00,57.5,47.0,25.80,WNW,293,0.0,2.0,68,0.00,,,0.00,weatherlink.com 1.10,2013-06-30 08:07:00,
2013-06-30 02:22:00,58.0,47.0,25.80,WNW,293,0.0,0.0,67,0.00,,,0.00,weatherlink.com 1.10,2013-06-30 08:22:00,
2013-06-30 02:37:00,58.0,47.0,25.79,NNW,347,2.0,2.0,67,0.00,,,0.00,weatherlink.com 1.10,2013-06-30 08:37:00,
2013-06-30 02:52:00,57.0,47.0,25.79,NNW,347,0.0,1.0,69,0.00,,,0.00,weatherlink.com 1.10,2013-06-30 08:52:00,
2013-06-30 03:07:00,56.6,47.0,25.80,NNW,333,1.0,1.0,70,0.00,,,0.00,weatherlink.com 1.10,2013-06-30 09:07:00,
2013-06-30 03:22:00,55.9,47.0,25.80,WSW,242,2.0,2.0,72,0.00,,,0.00,weatherlink.com 1.10,2013-06-30 09:22:00,
2013-06-30 03:37:00,55.2,48.0,25.80,WSW,257,3.0,6.0,76,0.00,,,0.00,weatherlink.com 1.10,2013-06-30 09:37:00,
2013-06-30 03:52:00,54.4,48.0,25.80,WSW,252,3.0,7.0,78,0.00,,,0.00,weatherlink.com 1.10,2013-06-30 09:52:00,
2013-06-30 04:07:00,54.3,48.0,25.80,WSW,257,3.0,5.0,79,0.00,,,0.00,weatherlink.com 1.10,2013-06-30 10:07:00,
2013-06-30 04:22:00,54.5,48.0,25.80,West,264,0.0,2.0,78,0.00,,,0.00,weatherlink.com 1.10,2013-06-30 10:22:00,
2013-06-30 04:37:00,54.5,47.0,25.80,WNW,291,0.0,1.0,77,0.00,,,0.00,weatherlink.com 1.10,2013-06-30 10:37:00,
2013-06-30 04:52:00,54.3,47.0,25.80,NW,317,2.0,2.0,77,0.00,,,0.00,weatherlink.com 1.10,2013-06-30 10:52:00,
2013-06-30 05:07:00,53.8,47.0,25.81,NW,321,0.0,3.0,78,0.00,,,0.00,weatherlink.com 1.10,2013-06-30 11:07:00,
2013-06-30 05:22:00,53.4,47.0,25.81,NW,304,2.0,2.0,80,0.00,,,0.00,weatherlink.com 1.10,2013-06-30 11:22:00,
2013-06-30 05:37:00,54.3,47.0,25.81,NW,309,2.0,2.0,77,0.00,,,0.00,weatherlink.com 1.10,2013-06-30 11:37:00,
2013-06-30 05:52:00,53.5,48.0,25.81,ESE,112,0.0,1.0,80,0.00,,,0.00,weatherlink.com 1.10,2013-06-30 11:52:00,
2013-06-30 06:07:00,54.2,48.0,25.81,ESE,111,0.0,0.0,79,0.00,,,0.00,weatherlink.com 1.10,2013-06-30 12:07:00,
2013-06-30 06:22:00,54.3,48.0,25.81,ESE,111,0.0,0.0,78,0.00,,,0.00,weatherlink.com 1.10,2013-06-30 12:22:00,
2013-06-30 06:37:00,55.3,49.0,25.82,SW,219,0.0,0.0,79,0.00,,,0.00,weatherlink.com 1.10,2013-06-30 12:37:00,
2013-06-30 07:07:00,62.5,50.0,25.82,SW,214,2.0,4.0,63,0.00,,,0.00,weatherlink.com 1.10,2013-06-30 13:07:00,
2013-06-30 07:22:00,64.3,49.0,25.81,SSE,158,3.0,5.0,58,0.00,,,0.00,weatherlink.com 1.10,2013-06-30 13:22:00,
2013-06-30 07:37:00,65.0,48.0,25.81,SSE,165,4.0,6.0,55,0.00,,,0.00,weatherlink.com 1.10,2013-06-30 13:37:00,
2013-06-30 07:52:00,65.0,48.0,25.81,SE,129,5.0,7.0,55,0.00,,,0.00,weatherlink.com 1.10,2013-06-30 13:52:00,
2013-06-30 08:07:00,66.7,47.0,25.81,SSE,166,5.0,9.0,49,0.00,,,0.00,weatherlink.com 1.10,2013-06-30 14:07:00,
2013-06-30 08:22:00,68.0,48.0,25.81,SE,138,9.0,11.0,49,0.00,,,0.00,weatherlink.com 1.10,2013-06-30 14:22:00,
2013-06-30 08:37:00,69.0,47.0,25.81,SSW,205,7.0,16.0,45,0.00,,,0.00,weatherlink.com 1.10,2013-06-30 14:37:00,
2013-06-30 08:52:00,69.6,47.0,25.81,SSE,159,8.0,13.0,45,0.00,,,0.00,weatherlink.com 1.10,2013-06-30 14:52:00,
2013-06-30 09:07:00,70.1,47.0,25.81,SE,146,7.0,11.0,44,0.00,,,0.00,weatherlink.com 1.10,2013-06-30 15:07:00,
2013-06-30 09:22:00,70.4,46.0,25.81,SE,130,8.0,12.0,42,0.00,,,0.00,weatherlink.com 1.10,2013-06-30 15:22:00,
2013-06-30 09:37:00,71.6,45.0,25.82,SE,142,5.0,12.0,39,0.00,,,0.00,weatherlink.com 1.10,2013-06-30 15:37:00,
2013-06-30 10:08:00,73.1,45.0,25.82,SSE,155,5.0,16.0,36,0.00,,,0.00,weatherlink.com 1.10,2013-06-30 16:08:00,
2013-06-30 10:23:00,73.2,45.0,25.81,SSE,166,2.0,13.0,37,0.00,,,0.00,weatherlink.com 1.10,2013-06-30 16:23:00,
2013-06-30 10:38:00,74.7,46.0,25.81,SE,145,7.0,9.0,36,0.00,,,0.00,weatherlink.com 1.10,2013-06-30 16:38:00,
2013-06-30 10:53:00,74.5,45.0,25.80,SSE,159,8.0,14.0,35,0.00,,,0.00,weatherlink.com 1.10,2013-06-30 16:53:00,
2013-06-30 11:08:00,75.7,45.0,25.81,ENE,65,7.0,12.0,34,0.00,,,0.00,weatherlink.com 1.10,2013-06-30 17:08:00,
2013-06-30 11:23:00,75.2,45.0,25.81,ENE,78,4.0,14.0,34,0.00,,,0.00,weatherlink.com 1.10,2013-06-30 17:23:00,
2013-06-30 11:38:00,74.9,45.0,25.80,ENE,60,3.0,11.0,34,0.00,,,0.00,weatherlink.com 1.10,2013-06-30 17:38:00,
2013-06-30 11:53:00,75.1,45.0,25.80,ENE,69,11.0,13.0,34,0.00,,,0.00,weatherlink.com 1.10,2013-06-30 17:53:00,
2013-06-30 12:08:00,77.3,47.0,25.80,SE,138,5.0,11.0,34,0.00,,,0.00,weatherlink.com 1.10,2013-06-30 18:08:00,
2013-06-30 12:23:00,76.0,46.0,25.80,SE,131,2.0,12.0,34,0.00,,,0.00,weatherlink.com 1.10,2013-06-30 18:23:00,
2013-06-30 12:38:00,78.6,47.0,25.79,SSW,201,11.0,14.0,33,0.00,,,0.00,weatherlink.com 1.10,2013-06-30 18:38:00,
2013-06-30 12:53:00,79.1,46.0,25.79,ESE,115,4.0,15.0,31,0.00,,,0.00,weatherlink.com 1.10,2013-06-30 18:53:00,
2013-06-30 13:08:00,76.8,46.0,25.79,NNE,19,4.0,18.0,34,0.00,,,0.00,weatherlink.com 1.10,2013-06-30 19:08:00,
2013-06-30 13:23:00,77.6,47.0,25.79,ESE,115,10.0,15.0,34,0.00,,,0.00,weatherlink.com 1.10,2013-06-30 19:23:00,
2013-06-30 13:38:00,77.8,47.0,25.79,ESE,123,9.0,15.0,34,0.00,,,0.00,weatherlink.com 1.10,2013-06-30 19:38:00,
2013-06-30 13:53:00,77.6,46.0,25.79,NNW,328,1.0,13.0,33,0.00,,,0.00,weatherlink.com 1.10,2013-06-30 19:53:00,
2013-06-30 14:08:00,78.3,47.0,25.78,ENE,77,13.0,14.0,33,0.00,,,0.00,weatherlink.com 1.10,2013-06-30 20:08:00,
2013-06-30 14:23:00,79.3,48.0,25.78,East,100,6.0,18.0,33,0.00,,,0.00,weatherlink.com 1.10,2013-06-30 20:23:00,
2013-06-30 14:38:00,79.4,47.0,25.78,ENE,60,12.0,18.0,32,0.00,,,0.00,weatherlink.com 1.10,2013-06-30 20:38:00,
2013-06-30 14:53:00,79.7,46.0,25.78,NE,53,8.0,17.0,31,0.00,,,0.00,weatherlink.com 1.10,2013-06-30 20:53:00,
2013-06-30 15:08:00,79.8,47.0,25.78,ENE,75,12.0,17.0,32,0.00,,,0.00,weatherlink.com 1.10,2013-06-30 21:08:00,
2013-06-30 15:23:00,78.4,48.0,25.78,East,84,11.0,17.0,34,0.00,,,0.00,weatherlink.com 1.10,2013-06-30 21:23:00,
2013-06-30 15:38:00,79.0,47.0,25.77,ENE,75,10.0,13.0,33,0.00,,,0.00,weatherlink.com 1.10,2013-06-30 21:38:00,
2013-06-30 15:53:00,78.4,49.0,25.77,ESE,114,12.0,19.0,35,0.00,,,0.00,weatherlink.com 1.10,2013-06-30 21:53:00,
2013-06-30 16:08:00,77.4,48.0,25.77,NE,54,8.0,13.0,36,0.00,,,0.00,weatherlink.com 1.10,2013-06-30 22:08:00,
2013-06-30 16:23:00,78.8,48.0,25.77,ENE,63,10.0,12.0,34,0.00,,,0.00,weatherlink.com 1.10,2013-06-30 22:23:00,
2013-06-30 16:38:00,78.1,49.0,25.78,ESE,118,12.0,19.0,36,0.00,,,0.00,weatherlink.com 1.10,2013-06-30 22:38:00,
2013-06-30 16:53:00,77.3,48.0,25.78,ESE,107,8.0,9.0,36,0.00,,,0.00,weatherlink.com 1.10,2013-06-30 22:53:00,
2013-06-30 17:08:00,78.2,50.0,25.78,East,99,12.0,15.0,37,0.00,,,0.00,weatherlink.com 1.10,2013-06-30 23:08:00,
2013-06-30 17:23:00,79.5,50.0,25.77,East,94,12.0,23.0,35,0.00,,,0.00,weatherlink.com 1.10,2013-06-30 23:23:00,
2013-06-30 17:38:00,78.9,49.0,25.77,East,96,10.0,18.0,35,0.00,,,0.00,weatherlink.com 1.10,2013-06-30 23:38:00,
2013-06-30 17:53:00,76.5,49.0,25.77,ENE,75,12.0,17.0,38,0.00,,,0.00,weatherlink.com 1.10,2013-06-30 23:53:00,
2013-06-30 18:08:00,78.1,50.0,25.77,ENE,72,16.0,16.0,37,0.00,,,0.00,weatherlink.com 1.10,2013-07-01 00:08:00,
2013-06-30 18:23:00,78.2,49.0,25.77,ESE,117,11.0,14.0,36,0.00,,,0.00,weatherlink.com 1.10,2013-07-01 00:23:00,
2013-06-30 18:38:00,77.9,49.0,25.77,ESE,117,9.0,12.0,36,0.00,,,0.00,weatherlink.com 1.10,2013-07-01 00:38:00,
2013-06-30 18:53:00,76.8,49.0,25.77,ESE,108,11.0,15.0,38,0.00,,,0.00,weatherlink.com 1.10,2013-07-01 00:53:00,
2013-06-30 19:08:00,76.2,49.0,25.77,ESE,107,9.0,14.0,39,0.00,,,0.00,weatherlink.com 1.10,2013-07-01 01:08:00,
2013-06-30 19:53:00,73.8,50.0,25.78,ENE,77,5.0,9.0,44,0.00,,,0.00,weatherlink.com 1.10,2013-07-01 01:53:00,
2013-06-30 20:08:00,71.6,51.0,25.79,ESE,116,7.0,9.0,48,0.00,,,0.00,weatherlink.com 1.10,2013-07-01 02:08:00,
2013-06-30 20:23:00,70.3,51.0,25.79,East,97,3.0,6.0,50,0.00,,,0.00,weatherlink.com 1.10,2013-07-01 02:23:00,
2013-06-30 20:38:00,69.0,51.0,25.80,ESE,105,6.0,7.0,53,0.00,,,0.00,weatherlink.com 1.10,2013-07-01 02:38:00,
2013-06-30 20:53:00,68.3,51.0,25.80,ESE,111,5.0,8.0,54,0.00,,,0.00,weatherlink.com 1.10,2013-07-01 02:53:00,
2013-06-30 21:08:00,67.2,50.0,25.81,ESE,103,6.0,8.0,54,0.00,,,0.00,weatherlink.com 1.10,2013-07-01 03:08:00,
2013-06-30 21:23:00,66.0,50.0,25.81,ESE,120,6.0,7.0,57,0.00,,,0.00,weatherlink.com 1.10,2013-07-01 03:23:00,
2013-06-30 21:38:00,65.4,50.0,25.81,SE,124,5.0,7.0,57,0.00,,,0.00,weatherlink.com 1.10,2013-07-01 03:38:00,
2013-06-30 21:53:00,64.4,50.0,25.82,ESE,110,6.0,7.0,59,0.00,,,0.00,weatherlink.com 1.10,2013-07-01 03:53:00,
2013-06-30 22:08:00,64.7,49.0,25.82,ESE,113,8.0,9.0,57,0.00,,,0.00,weatherlink.com 1.10,2013-07-01 04:08:00,
2013-06-30 22:23:00,64.8,49.0,25.81,ESE,123,8.0,12.0,57,0.00,,,0.00,weatherlink.com 1.10,2013-07-01 04:23:00,
2013-06-30 22:38:00,63.5,49.0,25.82,SE,143,8.0,12.0,59,0.00,,,0.00,weatherlink.com 1.10,2013-07-01 04:38:00,
2013-06-30 22:54:00,61.9,49.0,25.82,SSE,153,5.0,8.0,63,0.00,,,0.00,weatherlink.com 1.10,2013-07-01 04:54:00,
2013-06-30 23:09:00,61.6,50.0,25.82,SSE,158,5.0,10.0,65,0.00,,,0.00,weatherlink.com 1.10,2013-07-01 05:09:00,
2013-06-30 23:24:00,61.2,50.0,25.82,SSE,158,5.0,10.0,66,0.00,,,0.00,weatherlink.com 1.10,2013-07-01 05:24:00,
2013-06-30 23:39:00,60.6,50.0,25.82,SSE,160,4.0,7.0,67,0.00,,,0.00,weatherlink.com 1.10,2013-07-01 05:39:00,
2013-06-30 23:54:00,59.7,49.0,25.82,SE,146,4.0,6.0,69,0.00,,,0.00,weatherlink.com 1.10,2013-07-01 05:54:00,